Regional Weather Roundup
Issued by NWS

Home | Current Version | Previous Version | Graphics & Text | Print | Product List | Glossary On
Versions: 1 2 3 4 5 6 7 8 9 10 11 12 13 14 15 16 17 18 19 20 21 22 23 24 25 26 27 28 29 30 31 32 33 34 35 36 37 38 39 40 41 42 43 44 45 46 47 48 49 50
000
ASUS43 KMPX 011610
RWRMN
WEATHER ROUNDUP FOR MINNESOTA
NATIONAL WEATHER SERVICE TWIN CITIES/CHANHASSEN MN
1100 AM CDT MON JUN 01 2015


NOTE: "FAIR" INDICATES FEW OR NO CLOUDS BELOW 12,000 FEET WITH NO
SIGNIFICANT WEATHER AND/OR OBSTRUCTIONS TO VISIBILITY. N/A MEANS
CURRENT SKY AND/OR WEATHER CONDITIONS ARE NOT AVAILABLE.

MNZ060>063-068>070-011700-
   Twin Cities Metro

CITY           SKY/WX    TMP DP  RH WIND       PRES   REMARKS
TWIN CITIES    MOSUNNY   59  38  45 VRB7      30.25F
ST PAUL        MOSUNNY   60  38  43 SE10      30.26F
CRYSTAL        SUNNY     62  36  37 SE13      30.24F
BLAINE         MOSUNNY   61  36  39 SE12G17   30.25F
LAKEVILLE      MOSUNNY   59  39  47 SE7       30.25S
EDEN PRAIRIE   MOSUNNY   61  41  47 SE13      30.24F
SOUTH ST PAUL  MOSUNNY   59  35  41 S7        30.26F
LAKE ELMO      FAIR      59  37  44 SE8       30.27F
$$
MNZ001>005-007-008-013>017-022>024-027-028-011700-
   Northwest Minnesota

CITY           SKY/WX    TMP DP  RH WIND       PRES   REMARKS
BEMIDJI        PTSUNNY   62  43  50 SE18      30.17F
HALLOCK        CLOUDY    64  43  45 S24       30.07F
ROSEAU         MOSUNNY   64  43  45 S17       30.12F
WARROAD        SUNNY     63  45  51 S10G17    30.14F
THIEF RVR FALL CLOUDY    61  41  48 S21       30.12F
CROOKSTON      PTSUNNY   63  45  51 S21G26    30.11F
FOSSTON        MOSUNNY   61  41  48 S17       30.14F
DETROIT LAKES  MOSUNNY   59  45  58 SE16      30.15F
MOORHEAD       PTSUNNY   63  46  55 S21       30.10F
PARK RAPIDS    CLOUDY    61  42  49 SE14      30.18F
MAHNOMEN       CLOUDY    59  43  55 S10G17    30.14S
$$
MNZ006-009>011-018-025>026-011700-
   North Central Minnesota

CITY           SKY/WX    TMP DP  RH WIND       PRES   REMARKS
BAUDETTE       SUNNY     63  41  44 S15       30.17F
FLAG ISLAND    SUNNY     54  43  66 S20       30.14F
INTL FALLS     SUNNY     64  38  38 S8        30.22F
WASKISH        MOSUNNY   63  43  48 SE12G21   30.18R
BIG FORK       SUNNY     63  43  48 S16       30.22F
LONGVILLE      PTSUNNY   61  43  51 S10G18    30.21F
GRAND RAPIDS   SUNNY     59  37  44 S13       30.24F
CRANE LAKE     SUNNY     61  36  39 S8        30.26S
ORR            SUNNY     61  36  39 S7        30.22F
COOK           SUNNY     59  39  47 S6        30.25F
WALKER         CLOUDY    59  42  54 SE14      30.19F
$$
MNZ012-019>021-037-011700-
   Northeast Minnesota

CITY           SKY/WX    TMP DP  RH WIND       PRES   REMARKS
DULUTH         SUNNY     51  36  56 SE9       30.28F
HIBBING        SUNNY     61  38  42 VRB6      30.25F
EVELETH        SUNNY     59  36  41 SE9       30.27S
DULUTH HARBOR  SUNNY     45  39  81 NE12      30.32F
TWO HARBORS    SUNNY     57  39  51 E7        30.28F
SILVER BAY     SUNNY     55  34  44 NE6       30.29F
GRAND MARAIS     N/A     45  31  58 E3        30.35F
G MARAIS ARPRT SUNNY     54  19  26 SE6       30.33S
$$
MNZ029>031-032-039>041-046>048-054>057-064-011700-
   West Central Minnesota

CITY           SKY/WX    TMP DP  RH WIND       PRES   REMARKS
FERGUS FALLS   MOSUNNY   64  46  52 S20       30.13F
WHEATON        PTSUNNY   63  46  55 SE23      30.12F
MORRIS         CLOUDY    64  46  52 S18G24    30.13F
ALEXANDRIA     SUNNY     63  45  51 S18G26    30.18F
ELBOW LAKE     CLOUDY    62  46  57 SE17      30.14S
WADENA         SUNNY     61  45  55 SE14      30.18S
GLENWOOD       SUNNY     64  46  52 SE17G25   30.18F
APPLETON       CLOUDY    64  46  52 SE13      30.14F
BENSON         CLOUDY    64  45  48 S9G21     30.16F
ORTONVILLE     PTSUNNY   64  46  52 S13       30.11F
MADISON        MOSUNNY   64  46  52 SE14      30.14S
WILLMAR        FAIR      64  45  48 SE17      30.19F
$$
MNZ033>034-036-042>043-049>051-058-059-011700-
   Central Minnesota

CITY           SKY/WX    TMP DP  RH WIND       PRES   REMARKS
ST CLOUD       PTSUNNY   61  44  53 SE13G21   30.22F
SAUK CENTRE    PTSUNNY   62  46  57 SE13G20   30.20S
PAYNESVILLE    PTSUNNY   58  45  61 E12       30.21S
AITKIN         MOSUNNY   63  34  34 S13       30.22S
PINE RIVER     PTSUNNY   59  45  58 S15       30.24F
BRAINERD       CLOUDY    59  42  53 SE13      30.22F
STAPLES        MOSUNNY   59  43  55 S12       30.20S
LONG PRAIRIE   FAIR      59  45  58 SE14      30.20S
LITTLE FALLS   MOSUNNY   61  43  51 SE7       30.22S
LITCHFIELD     SUNNY     63  46  55 SE8       30.22S
BUFFALO        PTSUNNY   61  42  50 SE8       30.24F
MAPLE LAKE     MOSUNNY   63  48  57 SE7       30.23F
$$
MNZ037-044-045-052-053-011700-
   East Central Minnesota

CITY           SKY/WX    TMP DP  RH WIND       PRES   REMARKS
PRINCETON      SUNNY     64  39  39 SE8       30.24F
MORA           MOSUNNY   59  36  41 SE9G17    30.27S
CAMBRIDGE      MOSUNNY   63  43  48 E10       30.24S
RUSH CITY      MOSUNNY   60  39  46 SE8       30.26F
MOOSE LAKE     SUNNY     61  37  41 SE3       30.24F
HINCKLEY       FAIR      61  37  41 SE7       30.26F
CLOQUET        SUNNY     54  37  54 SE5       30.27F
MCGREGOR       SUNNY     61  34  36 SE12G17   30.24F
$$
MNZ071>073-080-081-089-090-097-098-011700-
   Southwest Minnesota

CITY           SKY/WX    TMP DP  RH WIND       PRES   REMARKS
MONTEVIDEO     PTSUNNY   64  46  52 S9G16     30.17S
GRANITE FALLS  PTSUNNY   65  45  48 SE16      30.18S
CANBY          PTSUNNY   65  46  49 S14G20    30.14F
MARSHALL       PTSUNNY   64  45  48 S13       30.15S
REDWOOD FALLS  SUNNY     66  45  46 SE14      30.17F
OLIVIA         MOSUNNY   61  43  51 S14G22    30.17F
PIPESTONE        N/A    N/A N/A N/A MISG        N/A
WINDOM         SUNNY     64  46  52 SE9       30.18F
WORTHINGTON    SUNNY     63  45  51 SE15G21   30.16F
JACKSON        CLOUDY    64  46  52 SE13      30.19F
TRACY          PTSUNNY   65  47  52 S13       30.16S
SLAYTON        SUNNY     65  46  50 SE18      30.16F
$$
MNZ065>067-074>077-082>085-091>093-011700-
   South Central Minnesota

CITY           SKY/WX    TMP DP  RH WIND       PRES   REMARKS
MANKATO        MOSUNNY   61  43  51 SE9       30.23S
NEW ULM        FAIR      63  43  48 SE13G18   30.20F
ST JAMES       MOSUNNY   64  46  52 SE12      30.21F
FAIRMONT       MOSUNNY   61  43  51 SE10      30.21F
GLENCOE        MOSUNNY   63  47  55 E12       30.21F
FARIBAULT      MOSUNNY   61  43  51 E7        30.25S
OWATONNA       MOSUNNY   61  43  51 E6        30.24F
WASECA         CLOUDY    59  41  51 SE6       30.25S
ALBERT LEA     SUNNY     63  43  48 E8        30.24S
$$
MNZ078>079-086>088-094>096-011700-
   Southeast Minnesota

CITY           SKY/WX    TMP DP  RH WIND       PRES   REMARKS
ROCHESTER      SUNNY     58  41  53 E10       30.26F
RED WING       SUNNY     59  36  41 SE7       30.26S
STANTON        SUNNY     61  38  42 E6        30.25S
DODGE CENTER   SUNNY     59  39  47 E8        30.25S
WINONA         SUNNY     59  43  55 E5        30.27F
AUSTIN         SUNNY     61  45  55 SE6       30.24F
PRESTON        SUNNY     57  38  50 S8        30.26F
$$
ABBREVIATIONS USED IN REMARKS
   TC - TEMPERATURES IN CELSIUS
  WCI - WIND CHILL INDEX
   HX - HEAT INDEX
  VSB - VISIBILITY
$$



USA.gov is the U.S. government's official web portal to all federal, state and local government web resources and services.